Location: Eschentzwiller
(47.7125°N, 7.3981°E)
Time: 04:32:41
(UTC+00:00)

DEBRIS - Pass Details

Date: 27 October 2020
Orbit: 307 x 15220 km, 49.4° (Epoch: 30 November)

Event Time Altitude Azimuth Distance (km) Brightness Sun altitude
Rises 19:03:20 0° 251° (WSW) 10,097 10.1 -27.9°
Reaches altitude 10° 19:13:17 10° 253° (WSW) 6,672 9.0 -29.6°
Enters shadow 19:27:28 83° 272° (W) 1,080 4.1 -31.9°
